Location: Harbor Island
(32.3990°N, 80.4435°W)
Time: 23:32:55
(UTC-04:00)

Daily predictions for brighter satellites

Satellite Brightness Start Highest point End
(mag) Time Altitude Azimuth Time Altitude Azimuth Time Altitude Azimuth
Cosmos 1140 Rocket 3.7 20:53:49 10° SSW 20:58:59 81° WNW 21:04:09 10° NNE
Resurs 01 Rocket 1.7 20:56:13 10° SSE 21:00:37 90° E 21:05:02 10° NNW
Resurs 1-3 3.6 20:59:53 10° SSE 21:04:15 88° E 21:08:40 10° NNW
Cosmos 1980 3.9 20:59:24 10° NNW 21:05:06 79° WSW 21:10:45 10° SSE
SL-8 R/B 4.2 21:01:24 10° WNW 21:06:04 55° SW 21:10:42 10° SSE
Meteor 2-15 Rocket 4.5 21:01:30 10° S 21:07:28 63° E 21:13:27 10° NNE
Meteor 1-29 4.0 21:05:09 10° NE 21:08:07 27° E 21:11:07 10° SSE
USA 186 0.8 21:06:35 10° SSE 21:08:54 77° E 21:11:08 10° N
Cosmos 1934 Rocket 4.2 21:06:29 10° N 21:12:35 72° W 21:18:35 10° S
Cosmos 2237 Rocket 2.5 21:09:01 10° NNW 21:14:36 71° WSW 21:20:11 10° S
Cosmos 1842 Rocket 3.6 21:14:52 10° N 21:19:15 87° W 21:23:35 10° S
USA 32 4.0 21:16:52 10° S 21:22:04 72° E 21:27:17 10° N
Cosmos 1340 Rocket 3.0 21:20:41 10° SSW 21:24:40 76° W 21:28:44 10° N
Cosmos 1674 3.2 21:21:22 10° SSE 21:24:52 38° E 21:28:23 10° NNE
Cosmos 1939 Rocket 2.9 21:23:33 10° SSE 21:27:28 61° ENE 21:31:29 10° N
Cosmos 1076 Rocket 3.9 21:24:22 10° SSE 21:28:31 44° E 21:32:40 10° NNE
In-Cosmos 22 4.4 21:22:51 10° SSW 21:28:32 78° W 21:34:19 10° N
Cosmos 1605 Rocket 4.2 21:22:32 10° N 21:28:50 80° W 21:35:12 10° S
USA 234 3.6 21:30:03 10° ENE 21:36:08 41° SE 21:42:12 10° SSW
Cosmos 1408 Rocket 4.3 21:33:35 15° SSE 21:36:32 32° E 21:40:23 10° NNE
Cosmos 1242 Rocket 3.4 21:34:28 10° NNE 21:37:51 33° ENE 21:39:42 21° SE
SL-16 R/B 2.2 21:34:45 10° NNW 21:40:26 76° ENE 21:45:02 16° SSE
Cosmos 1867 4.4 21:36:34 10° SW 21:41:52 56° WNW 21:47:14 10° NNE
Cosmos 1908 3.6 21:38:40 10° N 21:42:23 43° E 21:44:30 22° SE
ERS-1 Rocket 3.5 21:41:49 18° SE 21:45:04 41° ENE 21:49:46 10° N
KORONAS-FOTON 4.0 21:42:44 17° SSE 21:45:24 46° E 21:49:03 10° NNE
Sakura Rocket 4.4 21:37:28 10° W 21:46:33 67° S 21:52:07 16° E
Cosmos 2221 2.5 21:44:10 10° N 21:48:34 79° E 21:51:59 16° S
Cosmos 1802 Rocket 4.3 21:45:03 10° N 21:50:56 47° E 21:54:52 21° SE
Spot 1 4.0 21:50:02 16° S 21:53:16 79° WSW 21:57:28 10° NNW
Atlas Centaur 2 1.8 21:52:53 10° W 21:56:21 35° SSW 21:57:20 29° SSE
Tiangong 1 4.1 21:56:55 10° N 21:57:17 10° N 21:57:39 10° N
NOAA 11 4.3 22:02:06 25° SE 22:05:14 61° ENE 22:10:35 10° N
CZ-4B DEB 3.5 22:04:55 24° SSW 22:06:21 44° W 22:09:13 10° NNW
Abrixas 2.5 22:03:49 10° WSW 22:06:29 65° NW 22:09:10 10° NE
H-2A R/B 3.3 22:07:55 23° E 22:09:44 28° ENE 22:14:16 10° NNE
Cosmos 2016 Rocket 4.0 22:08:37 10° N 22:14:48 63° E 22:17:59 29° SSE
Cosmos 1766 Rocket 3.6 22:11:25 16° SSW 22:14:48 76° W 22:19:08 10° N
USA 142 4.2 22:08:27 10° W 22:15:02 47° SSW 22:16:10 36° SSE
MetOp-B 4.1 22:14:15 31° SSE 22:16:49 66° ENE 22:22:08 10° N
YAOGAN 6 3.7 22:15:27 20° SSW 22:17:34 40° W 22:21:03 10° NNW
Cosmos 1818 4.0 22:16:18 10° NW 22:21:35 55° WSW 22:24:23 27° S
Cosmos 1626 4.3 22:24:03 15° ENE 22:24:03 15° ENE 22:25:07 10° NE
Cosmos 1328 Rocket 4.0 22:19:27 10° N 22:23:33 41° E 22:23:58 40° E
ERBS 4.4 22:23:06 10° N 22:25:30 18° NE 22:25:48 18° NE
Cosmos 371 Rocket 3.9 22:21:48 10° N 22:26:21 40° ENE 22:27:15 36° E
Cosmos 1151 Rocket 4.4 22:23:15 10° NNE 22:26:36 24° ENE 22:26:36 24° ENE
USA 245 3.2 22:28:04 54° ENE 22:28:04 54° ENE 22:31:59 10° N
H-2A R/B 4.3 22:30:44 13° ENE 22:30:44 13° ENE 22:32:24 10° NE
Cosmos 1515 Rocket 4.3 22:26:44 10° NNE 22:30:41 35° E 22:30:41 35° E
Cosmos 1743 Rocket 3.4 22:29:55 53° SSE 22:30:44 68° E 22:35:01 10° NNE
Cosmos 1726 1.9 22:27:39 10° N 22:31:20 73° E 22:31:25 73° E
Cosmos 2263 Rocket 2.2 22:29:13 35° SSE 22:31:22 58° ESE 22:36:50 10° NNE
Delta 2 Rocket 4.2 22:26:09 10° W 22:31:51 79° NNW 22:36:56 14° ENE
YAOGAN 11 4.1 22:32:08 52° SE 22:33:05 70° ENE 22:37:36 10° N
GPS 2-05 Rocket1 3.1 22:31:57 10° W 22:34:46 55° NW 22:34:46 55° NW
SPOT 5 2.8 22:35:37 50° SSE 22:36:52 75° ENE 22:41:54 10° N
Cosmos 1354 Rocket 4.3 22:40:44 44° E 22:40:44 44° E 22:45:40 10° NNE
Cosmos 1300 2.6 22:37:17 10° N 22:40:57 72° ENE 22:40:57 72° ENE
Lacrosse 5 2.0 22:37:07 10° NNW 22:42:08 61° NE 22:43:10 50° E
Cosmos 2228 Rocket 3.0 22:39:41 10° N 22:44:16 70° E 22:44:39 66° ESE
SL-14 R/B 3.6 22:44:49 48° SW 22:45:38 61° W 22:49:33 10° N
Cosmos 2058 3.4 22:47:51 46° ENE 22:47:51 46° ENE 22:51:17 10° NNE
Cosmos 1814 Rocket 4.0 22:41:55 10° NNW 22:47:15 73° ENE 22:48:13 57° SE
Abrixas rocket 4.4 22:45:36 10° NNW 22:47:59 20° NNE 22:47:59 20° NNE
Nimbus 7 Rocket 4.4 22:44:06 10° NNE 22:50:07 86° WNW 22:53:11 31° SSW
Cosmos 1486 Rocket 4.3 22:47:46 23° SSW 22:51:03 68° WNW 22:56:20 10° N
Landsat 7 4.1 22:51:51 48° ENE 22:51:58 48° ENE 22:56:32 10° N
EO 1 Delta rocket 3.7 22:51:25 66° SSE 22:52:05 86° ENE 22:56:42 10° N
SL-08 RB Rocket 3.7 22:53:52 66° SSW 22:54:26 77° W 22:59:03 10° NNW
Cosmos 841 Rocket 3.8 22:49:48 10° N 22:54:52 49° ENE 22:55:13 48° E
Cosmos 1763 Rocket 3.3 22:50:30 10° N 22:55:33 66° ENE 22:55:57 63° E
RESURS DK-1 2.5 22:51:38 10° NNW 22:55:44 64° WSW 22:55:44 64° WSW
Cosmos 1447 Rocket 4.4 22:54:09 48° SSE 22:55:55 71° E 23:02:13 10° N
DMSP B5D2-2 3.9 22:53:02 10° NNE 22:58:16 76° ESE 22:58:55 66° SSE
H-2A ROCKET BODY 2.6 22:55:18 10° WSW 22:59:00 56° SSE 23:13:35 10° E
SPOT 1/Viking Rocket 3.4 23:04:06 66° SSW 23:04:48 80° WSW 23:09:58 10° NNW
Terra 2.3 23:07:16 46° ENE 23:07:16 46° ENE 23:11:28 10° N
ARGOS 3.8 23:05:26 38° SSW 23:07:02 49° W 23:12:16 10° NNW
Cosmos 1603 4.1 23:02:22 10° NNW 23:07:51 54° WSW 23:09:01 45° SSW
Milstar 3 Cent rocket 4.3 23:01:11 10° W 23:08:59 43° SSW 23:12:41 36° SSE
Cosmos 1455 4.1 23:10:39 10° NNE 23:12:26 22° NNE 23:12:26 22° NNE
USA 234 4.2 23:12:54 10° NNE 23:19:05 47° NW 23:25:16 10° WSW
Cosmos 2151 3.7 23:19:26 49° WNW 23:19:26 49° WNW 23:23:32 10° N
Cosmos 1943 3.0 23:16:17 10° NNW 23:21:58 88° WSW 23:22:12 83° S
Cosmos 2285 Rocket 4.1 23:23:05 10° N 23:29:21 59° ENE 23:29:42 58° E
SL-19 R/B 4.3 23:35:30 10° N 23:40:55 71° WNW 23:41:12 69° W
H-2A R/B 3.4 23:48:33 29° WSW 23:48:59 29° W 23:53:38 10° NW
Cosmos 968 Rocket 4.4 23:52:54 40° NE 23:52:54 40° NE 23:56:19 10° NNE
CZ-4B R/B 3.9 23:46:16 10° NNE 23:50:35 61° N 23:50:35 61° N
Cosmos 540 Rocket 4.0 23:46:52 10° NNW 23:50:56 56° N 23:50:56 56° N
